Location: Gro� Glienicke
(52.4675°N, 13.1079°E)
Time: 18:08:12
(UTC+00:00)

Cosmos 1624 Rocket - Pass Details

Date: 06 July 2020
Orbit: 758 x 783 km, 74.0° (Epoch: 13 August)

Event Time Altitude Azimuth Distance (km) Brightness Sun altitude
Rises 21:29:26 0° 335° (NNW) 3,252 9.5 -11.7°
Reaches altitude 10° 21:31:51 10° 337° (NNW) 2,317 8.1 -11.8°
Maximum altitude 21:37:06 75° 63° (ENE) 794 4.1 -12.1°
Enters shadow 21:41:09 17° 148° (SSE) 1,853 5.4 -12.4°
